Weather History for Gwinner, ND

Change the Weather History Date:

Sunday, March 4, 2012

  Actual Average (KP67) Record (KP67)
Temperature  
Mean Temperature 16 °F -  
Max Temperature 28 °F 23 °F 30 °F (1998)
Min Temperature 5 °F 6 °F -9 °F (1997)
Degree Days  
Heating Degree Days 48    
Moisture  
Dew Point 17 °F    
Average Humidity 95    
Maximum Humidity 100    
Minimum Humidity 80    
Precipitation  
Precipitation 0.01 in - - ()
Sea Level Pressure  
Sea Level Pressure 29.91 in    
Wind  
Wind Speed 6 mph (ESE)    
Max Wind Speed 16 mph    
Max Gust Speed -    
Visibility 7 miles    
Events      
Averages and records for this station are not official NWS values.
T = Trace of Precipitation, MM = Missing Value Source: NWS Daily Summary

Daily Weather History Graph

Daily Weather History Graph

Search for Another Location

Airport:

Trip Planner

Search our weather history database for the weather conditions in past years. The results will help you decide how hot, cold, wet, or windy it might be!

Date:

Astronomy

Mar. 04, 2012 Rise Set
Actual Time 7:03 AM CST 6:21 PM CST
Civil Twilight 6:33 AM CST 6:51 PM CST
Nautical Twilight 5:58 AM CST 7:26 PM CST
Astronomical Twilight 5:23 AM CST 8:01 PM CST
Moon 2:24 PM CST (3/4) 4:36 AM CST (3/4)
Length of Visible Light 12h 18m
Length of Day
11h 18m
Waxing Gibbous, 84% of the Moon is Illuminated
Mar 4
Waxing Gibbous
Mar 8
Full
Mar 14
Last Quarter
Mar 22
New
Mar 30
First Quarter

Hourly Weather History & Observations

Time (CST) Temp. Windchill Dew Point Humidity Pressure Visibility Wind Dir Wind Speed Gust Speed Precip Events Conditions
12:15 AM 5.0 °F -4.1 °F 3.2 °F 92% 29.86 in 7.0 mi SW 4.6 mph - 0.00 in   Clear
12:55 AM 6.8 °F -2.0 °F 5.0 °F 92% 29.84 in 9.0 mi South 4.6 mph - 0.00 in   Overcast
1:15 AM 8.6 °F 2.0 °F 5.0 °F 85% 29.84 in 10.0 mi South 3.5 mph - 0.00 in   Overcast
1:35 AM 8.6 °F - 8.6 °F 100% 29.84 in 10.0 mi Calm Calm - 0.00 in   Overcast
1:55 AM 10.4 °F 0.8 °F 8.6 °F 92% 29.83 in 10.0 mi SSE 5.8 mph - 0.00 in   Overcast
2:55 AM 12.2 °F - 10.4 °F 92% 29.83 in 10.0 mi Calm Calm - 0.00 in   Overcast
3:15 AM 12.2 °F - 12.2 °F 100% 29.83 in 10.0 mi Calm Calm - 0.00 in   Overcast
3:35 AM 14.0 °F 5.1 °F 12.2 °F 93% 29.80 in 9.0 mi SSE 5.8 mph - 0.00 in   Overcast
3:55 AM 14.0 °F 5.1 °F 12.2 °F 93% 29.80 in 10.0 mi South 5.8 mph - 0.00 in   Overcast
4:15 AM 14.0 °F 6.5 °F 14.0 °F 100% 29.81 in 9.0 mi South 4.6 mph - 0.00 in   Overcast
4:35 AM 14.0 °F 6.5 °F 14.0 °F 100% 29.82 in 10.0 mi SE 4.6 mph - 0.00 in   Overcast
4:55 AM 14.0 °F 6.5 °F 14.0 °F 100% 29.81 in 8.0 mi ESE 4.6 mph - 0.00 in   Overcast
5:15 AM 14.0 °F 3.9 °F 14.0 °F 100% 29.80 in 9.0 mi ESE 6.9 mph - 0.00 in   Scattered Clouds
5:35 AM 14.0 °F 6.5 °F 14.0 °F 100% 29.81 in 10.0 mi SE 4.6 mph - 0.00 in   Mostly Cloudy
5:55 AM 14.0 °F 5.1 °F 14.0 °F 100% 29.80 in 6.0 mi ESE 5.8 mph - 0.00 in   Mostly Cloudy
6:15 AM 15.8 °F 6.1 °F 15.8 °F 100% 29.81 in 2.5 mi ESE 6.9 mph - 0.00 in   Overcast
6:35 AM 15.8 °F 4.2 °F 15.8 °F 100% 29.80 in 2.0 mi ESE 9.2 mph - 0.00 in   Overcast
6:55 AM 17.6 °F 5.7 °F 17.6 °F 100% 29.80 in 2.0 mi ESE 10.4 mph - 0.00 in   Overcast
7:15 AM 17.6 °F 6.4 °F 17.6 °F 100% 29.80 in 0.8 mi ESE 9.2 mph - 0.00 in   Overcast
7:35 AM 17.6 °F 6.4 °F 17.6 °F 100% 29.79 in 0.5 mi SE 9.2 mph - 0.00 in   Overcast
7:55 AM 17.6 °F 5.7 °F 17.6 °F 100% 29.79 in 0.5 mi ESE 10.4 mph - 0.00 in   Overcast
8:15 AM - - - N/A% 29.80 in 1.5 mi SE 10.4 mph - 0.00 in   Overcast
8:35 AM - - - N/A% 29.80 in 0.5 mi SE 9.2 mph - 0.00 in   Overcast
8:55 AM 19.4 °F 10.4 °F 19.4 °F 100% 29.81 in 0.2 mi SSE 6.9 mph - 0.00 in   Overcast
9:15 AM 19.4 °F 9.5 °F 19.4 °F 100% 29.81 in 0.2 mi SE 8.1 mph - 0.01 in   Overcast
9:35 AM 19.4 °F 9.5 °F 19.4 °F 100% 29.82 in 1.0 mi East 8.1 mph - 0.01 in   Overcast
9:55 AM 19.4 °F 7.9 °F 19.4 °F 100% 29.82 in 2.0 mi ESE 10.4 mph - 0.01 in   Overcast
10:15 AM 19.4 °F 10.4 °F 19.4 °F 100% 29.83 in 3.0 mi ESE 6.9 mph - 0.00 in   Mostly Cloudy
10:35 AM 19.4 °F - 19.4 °F 100% 29.85 in 3.0 mi Calm Calm - 0.00 in   Overcast
10:55 AM 21.2 °F 11.7 °F 21.2 °F 100% 29.87 in 6.0 mi NE 8.1 mph - 0.00 in   Overcast
11:35 AM 21.2 °F - 21.2 °F 100% 29.89 in 6.0 mi Calm Calm - 0.00 in   Overcast
11:55 AM 21.2 °F - 21.2 °F 100% 29.91 in 8.0 mi Calm Calm - 0.00 in   Overcast
12:15 PM 23.0 °F - 21.2 °F 93% 29.92 in 7.0 mi Calm Calm - 0.00 in   Overcast
12:35 PM 23.0 °F - 21.2 °F 93% 29.93 in 5.0 mi Calm Calm - 0.00 in   Overcast
12:55 PM 23.0 °F 14.7 °F 21.2 °F 93% 29.94 in 7.0 mi North 6.9 mph - 0.00 in   Mostly Cloudy
1:15 PM 24.8 °F 15.3 °F 23.0 °F 93% 29.95 in 7.0 mi NW 9.2 mph - 0.00 in   Scattered Clouds
1:35 PM 26.6 °F 21.2 °F 23.0 °F 86% 29.96 in 8.0 mi North 4.6 mph - 0.00 in   Partly Cloudy
1:55 PM 24.8 °F 17.9 °F 23.0 °F 93% 29.96 in 9.0 mi North 5.8 mph - 0.00 in   Mostly Cloudy
2:15 PM 26.6 °F 20.0 °F 23.0 °F 86% 29.96 in 8.0 mi North 5.8 mph - 0.00 in   Overcast
2:35 PM 28.4 °F 16.6 °F 24.8 °F 86% 29.97 in 8.0 mi NNW 16.1 mph - 0.00 in   Mostly Cloudy
3:15 PM 26.6 °F 19.1 °F 23.0 °F 86% 29.99 in 8.0 mi NNE 6.9 mph - 0.00 in   Scattered Clouds
3:35 PM 23.0 °F 17.0 °F 21.2 °F 93% 30.00 in 9.0 mi NE 4.6 mph - 0.00 in   Scattered Clouds
3:55 PM 28.4 °F 16.6 °F 23.0 °F 80% 30.01 in 9.0 mi NNW 16.1 mph - 0.00 in   Mostly Cloudy
4:15 PM 28.4 °F 17.5 °F 24.8 °F 86% 30.02 in 9.0 mi NNW 13.8 mph - 0.00 in   Overcast
4:35 PM 26.6 °F 16.8 °F 23.0 °F 86% 30.03 in 10.0 mi North 10.4 mph - 0.00 in   Scattered Clouds
4:55 PM 26.6 °F 16.8 °F 21.2 °F 80% 30.03 in 10.0 mi North 10.4 mph - 0.00 in   Clear
5:15 PM 26.6 °F 18.2 °F 21.2 °F 80% 30.04 in 10.0 mi NNW 8.1 mph - 0.00 in   Clear
5:35 PM 23.0 °F 14.7 °F 19.4 °F 86% 30.04 in 10.0 mi NW 6.9 mph - 0.00 in   Clear
5:55 PM 21.2 °F 13.6 °F 19.4 °F 93% 30.05 in 10.0 mi NW 5.8 mph - 0.00 in   Clear
6:15 PM 19.4 °F 9.5 °F 17.6 °F 93% 30.05 in 9.0 mi West 8.1 mph - 0.00 in   Clear
6:35 PM 14.0 °F 3.9 °F 14.0 °F 100% 30.06 in 9.0 mi West 6.9 mph - 0.00 in   Clear
6:55 PM 14.0 °F 6.5 °F 12.2 °F 93% 30.07 in 10.0 mi WSW 4.6 mph - 0.00 in   Clear
7:15 PM 14.0 °F 3.9 °F 14.0 °F 100% 30.07 in 10.0 mi WNW 6.9 mph - 0.00 in   Clear
7:35 PM 12.2 °F 4.3 °F 12.2 °F 100% 30.07 in 10.0 mi WNW 4.6 mph - 0.00 in   Clear
7:55 PM 12.2 °F 1.7 °F 12.2 °F 100% 30.08 in 9.0 mi WSW 6.9 mph - 0.00 in   Clear
8:15 PM 10.4 °F -0.4 °F 10.4 °F 100% 30.09 in 10.0 mi West 6.9 mph - 0.00 in   Clear
8:35 PM 10.4 °F -0.4 °F 10.4 °F 100% 30.09 in 10.0 mi West 6.9 mph - 0.00 in   Clear
8:55 PM 8.6 °F -4.7 °F 8.6 °F 100% 30.09 in 10.0 mi West 9.2 mph - 0.00 in   Clear
9:55 PM 8.6 °F -1.3 °F 8.6 °F 100% 30.09 in 9.0 mi NW 5.8 mph - 0.00 in   Scattered Clouds
10:15 PM 10.4 °F -0.4 °F 10.4 °F 100% 30.09 in 8.0 mi NW 6.9 mph - 0.00 in   Clear
10:35 PM 12.2 °F 6.1 °F 10.4 °F 92% 30.08 in 8.0 mi NNW 3.5 mph - 0.00 in   Clear
10:55 PM 3.2 °F -6.2 °F -0.4 °F 85% 30.08 in 8.0 mi SW 4.6 mph - 0.00 in   Clear
11:15 PM 5.0 °F -8.1 °F 3.2 °F 92% 30.07 in 1.0 mi SW 8.1 mph - 0.00 in   Clear
11:35 PM 3.2 °F -10.3 °F -0.4 °F 85% 30.07 in 0.5 mi SW 8.1 mph - 0.00 in   Unknown
11:55 PM 3.2 °F -9.1 °F 1.4 °F 92% 30.06 in 1.0 mi SW 6.9 mph - 0.00 in   Clear